Regional Weather Roundup
Issued by NWS

Home | Current Version | Previous Version | Graphics & Text | Print | Product List | Glossary On
Versions: 1 2 3 4 5 6 7 8 9 10 11 12 13 14 15 16 17 18 19 20 21 22 23 24 25 26 27 28 29 30 31 32 33 34 35 36 37 38 39 40 41 42 43 44 45 46 47 48 49 50
000
ASUS44 KMEG 200010
RWRTN
TENNESSEE HOURLY STATE WEATHER ROUNDUP
NATIONAL WEATHER SERVICE MEMPHIS TN
600 PM CST SUN FEB 19 2017

TNZ002-004-019-021-049-052-054-088>092-200100-
WEST TENNESSEE

CITY           SKY/WX    TMP DP  RH WIND       PRES   REMARKS
MEMPHIS INTL   PTCLDY    72  52  49 SE5       30.04S
NWS MEMPHIS      N/A     71 N/A N/A MISG        N/A
JACKSON        CLEAR     69  51  52 CALM      30.07R
UNION CITY     CLEAR     64  50  59 CALM      30.06S
PARIS          CLEAR     59  50  72 CALM      30.09R
HUNTINGDON     CLEAR     63  52  67 CALM      30.07R
$$

TNZ008-025-027-028-033-062-065-066-200100-
NORTH MIDDLE TENNESSEE

CITY           SKY/WX    TMP DP  RH WIND       PRES   REMARKS
NASHVILLE      PTCLDY    63  49  60 E5        30.11F
PORTLAND       CLEAR     61  52  72 E5        30.12S
CLARKSVILLE    CLEAR     63  51  65 NE5       30.09S
SMYRNA         CLEAR     60  51  72 CALM      30.12F
COOKEVILLE     CLEAR     52  46  82 CALM      30.11S
GALLATIN       CLEAR     61  50  67 CALM      30.14S
CROSSVILLE     CLEAR     60  45  57 NW6       30.14R
$$

TNZ061-075-076-078-094-096-097-200100-
SOUTH MIDDLE TENNESSEE

CITY           SKY/WX    TMP DP  RH WIND       PRES   REMARKS
FAYETTEVILLE   CLEAR     61  50  67 NE3       30.10F
TULLAHOMA      CLEAR     61  46  59 CALM      30.13S
WINCHESTER     CLEAR     55  48  76 CALM      30.12F
MCMINNVILLE    CLEAR     59  50  72 CALM      30.12F
COLUMBIA       CLEAR     64  54  68 E3        30.08S
SHELBYVILLE    CLEAR     61  54  77 E3        30.12F
$$

TNZ017-018-042-046-047-200100-
NORTHEAST TENNESSEE

CITY           SKY/WX    TMP DP  RH WIND       PRES   REMARKS
TRI CITIES     CLEAR     53  43  68 CALM      30.14R
ELIZABETHTON   CLEAR     46  43  87 CALM      30.14R
$$

TNZ012-013-036-069-073-074-200100-
CENTRAL EAST TENNESSEE

CITY           SKY/WX    TMP DP  RH WIND       PRES   REMARKS
KNOXVILLE      CLEAR     60  44  55 SE3       30.12R
OAK RIDGE      CLEAR     57  46  66 CALM      30.14R
GATLINBURG     CLEAR     55  45  67 CALM      30.13R
MORRISTOWN     PTCLDY    57  45  62 SW5       30.13R
JACKSBORO      CLEAR     55  46  71 CALM      30.16R
$$

TNZ083-085-099-200100-
SOUTHEAST TENNESSEE

CITY           SKY/WX    TMP DP  RH WIND       PRES   REMARKS
CHATTANOOGA    PTCLDY    62  47  57 NW3       30.12R
$$

SKY/WX REPORTED AS FAIR MEANS FEW OR NO CLOUDS BELOW
12 THOUSAND FEET.





USA.gov is the U.S. government's official web portal to all federal, state and local government web resources and services.